"Pseudo-MPEC" for A11aDOV

Created 2024 Sep 5 21:22:02 UT using Find_Orb

Click here for an explanation of pseudo-MPECs

 
 Astrometry: 
     A11aDOV* C2024 09 04.37325922 09 40.896+38 30 55.69   ~94Bb 18.84oVNEOCPT08
     A11aDOV  C2024 09 04.37622222 09 42.252+38 30 45.79   ~94Bb 18.71oVNEOCPT08
     A11aDOV  C2024 09 04.37913122 09 43.541+38 30 36.90   ~94Bb 18.99oVNEOCPT08
     A11aDOV  C2024 09 04.40733022 09 56.095+38 29 05.68   ~94Bb 18.89oVNEOCPT08
     A11aDOV  C2024 09 04.47925522 10 25.716+38 24 13.60   ~94C7 19.1 GVNEOCPH01
     A11aDOV  C2024 09 04.48219222 10 27.138+38 24 03.07   ~94C7 19.1 GVNEOCPH01
     A11aDOV  C2024 09 04.48576422 10 28.861+38 23 50.28   ~94C7 19.1 GVNEOCPH01
     A11aDOV  C2024 09 04.48934422 10 30.600+38 23 37.45   ~94C7 19.0 GVNEOCPH01
     A11aDOV KC2024 09 04.49480122 10 42.70 +38 23 46.9    ~94D7 18.9 GVNEOCP900
     A11aDOV KC2024 09 04.50543522 10 47.59 +38 23 12.9    ~94D7 18.9 GVNEOCP900
     A11aDOV KC2024 09 04.51606922 10 52.47 +38 22 38.6    ~94D7       VNEOCP900
     A11aDOV 1C2024 09 04.79672 22 13 12.96 +38 06 13.5    ~94Nb 20.2 VXNEOCP033
     A11aDOV 1C2024 09 04.79706 22 13 13.15 +38 06 12.3    ~94Nb 20.6 VXNEOCP033
     A11aDOV 1C2024 09 04.79780 22 13 13.50 +38 06 09.9    ~94Nb 20.4 VXNEOCP033
     A11aDOV 1C2024 09 04.79867 22 13 13.89 +38 06 07.6    ~94Nb 19.7 VXNEOCP033
     A11aDOV KC2024 09 04.80261622 13 15.66 +38 05 54.7    ~94K7 19.4 GVNEOCPG34
     A11aDOV KC2024 09 04.80548022 13 17.10 +38 05 45.3    ~94K7 18.9 GVNEOCPG34
     A11aDOV KC2024 09 04.80834222 13 18.43 +38 05 35.8    ~94K7 19.1 GVNEOCPG34
     A11aDOV KC2024 09 04.81120522 13 19.88 +38 05 26.7    ~94K7 19.0 GVNEOCPG34
     A11aDOV KC2024 09 04.81692722 13 22.69 +38 05 07.6    ~94K7 18.8 GVNEOCPG34
     A11aDOV KC2024 09 04.81856 22 13 22.94 +38 05 11.1    ~94KM 18.8 VqNEOCPL04
     A11aDOV KC2024 09 04.82601 22 13 26.48 +38 04 45.8    ~94KM 18.8 VqNEOCPL04
     A11aDOV KC2024 09 04.83207722 13 30.12 +38 04 22.7    ~94L7 19.3 GXNEOCP595
     A11aDOV KC2024 09 04.83336 22 13 30.03 +38 04 20.9    ~94KM 19.2 VqNEOCPL04
     A11aDOV KC2024 09 04.83737322 13 32.74 +38 04 04.8    ~94L7 19.1 GXNEOCP595
     A11aDOV KC2024 09 04.84696922 13 37.23 +38 03 32.3    ~94L7 19.2 GXNEOCP595
     A11aDOV KC2024 09 04.85312522 13 40.21 +38 03 13.1    ~94L7 19.6 GVNEOCPL01
     A11aDOV KC2024 09 04.85480922 13 41.03 +38 03 07.4    ~94L7 19.6 GVNEOCPL01
     A11aDOV pC2024 09 04.85838822 13 42.68 +38 02 56.1    ~94L7 19.3 GVNEOCPL01
     A11aDOV KC2024 09 04.91127 22 14 07.74 +37 59 59.6    ~94MM 18.8 GVNEOCPC82
     A11aDOV KC2024 09 04.91612 22 14 10.10 +37 59 42.6    ~94MM 18.8 GVNEOCPC82
     A11aDOV KC2024 09 04.92080 22 14 12.24 +37 59 26.9    ~94MM 19.0 GVNEOCPC82
     A11aDOV KB2024 09 04.92310622 14 14.66 +37 59 10.6    ~94Mb 19.1 GXNEOCPI93
     A11aDOV KB2024 09 04.92642622 14 16.26 +37 58 59.2    ~94Mb 19.4 GXNEOCPI93
     A11aDOV KB2024 09 04.92955422 14 17.74 +37 58 48.2    ~94Mb 18.9 GXNEOCPI93
     A11aDOV KB2024 09 05.14045722 15 59.583+37 45 56.17   ~9567 18.5 VZNEOCPY89
     A11aDOV KB2024 09 05.14806722 16 03.311+37 45 27.34   ~9567 19.1 VZNEOCPY89
     A11aDOV KB2024 09 05.15567722 16 07.027+37 44 58.46   ~9567 19.0 VZNEOCPY89
     A11aDOV KC2024 09 05.20999 22 16 42.35 +37 42 10.3    ~95C7 18.7 GVNEOCPV21
     A11aDOV KC2024 09 05.22426 22 16 49.17 +37 41 18.7    ~95C7 18.5 GVNEOCPV21
     A11aDOV KC2024 09 05.23851 22 16 56.00 +37 40 27.0    ~95C7 19.3 GVNEOCPV21
     A11aDOV KC2024 09 05.25276 22 17 02.83 +37 39 34.7    ~95C7 18.8 GVNEOCPV21
     A11aDOV KC2024 09 05.26702 22 17 09.63 +37 38 42.0    ~95C7 19.3 GVNEOCPV21
     A11aDOV KC2024 09 05.28128 22 17 16.49 +37 37 49.0    ~95C7 18.5 GVNEOCPV21
     A11aDOV !C2024 09 05.33289 22 17 42.28 +37 34 30.3    ~958M 19.3 GVNEOCP673
     A11aDOV !C2024 09 05.33467 22 17 43.13 +37 34 23.6    ~958M       VNEOCP673
     A11aDOV !C2024 09 05.33649 22 17 44.03 +37 34 16.6    ~958M       VNEOCP673
     A11aDOV KC2024 09 05.51663522 19 22.78 +37 22 43.6    ~95Db 18.6 GVNEOCP900
     A11aDOV KC2024 09 05.52726722 19 28.06 +37 22 03.4    ~95Db 18.7 GVNEOCP900
     A11aDOV KC2024 09 05.53790122 19 33.24 +37 21 23.3    ~95Db 18.9 GVNEOCP900
     A11aDOV KB2024 09 05.54602422 19 37.184+37 20 52.63   ~95EM 18.5 VZNEOCPQ06
     A11aDOV KB2024 09 05.55370522 19 40.938+37 20 23.17   ~95EM 18.3 VZNEOCPQ06
     A11aDOV KB2024 09 05.56082322 19 44.514+37 19 55.85   ~95EM 19.0 VZNEOCPQ06
     A11aDOV 1C2024 09 05.78872 22 21 48.53 +37 04 13.8    ~95L7 19.5 VXNEOCP033
     A11aDOV 1C2024 09 05.78903 22 21 48.69 +37 04 12.7    ~95L7 20.1 VXNEOCP033
     A11aDOV 1C2024 09 05.78935 22 21 48.87 +37 04 11.3    ~95L7 19.5 VXNEOCP033
     A11aDOV KC2024 09 05.79500422 21 51.71 +37 03 50.3    ~95Jb 19.3 GVNEOCPG34
     A11aDOV KC2024 09 05.79872222 21 53.68 +37 03 35.9    ~95Jb 19.1 GVNEOCPG34
     A11aDOV KC2024 09 05.80305122 21 55.82 +37 03 18.4    ~95Jb 18.2 GVNEOCPG34
     A11aDOV KB2024 09 05.81802 22 22 03.05 +37 02 32.8    ~95Jq 18.9 GXNEOCPM45
     A11aDOV KB2024 09 05.81928 22 22 03.66 +37 02 28.0    ~95Jq 18.8 GXNEOCPM45

Station data:
(033) Karl Schwarzschild Observatory, Tautenburg  (N50.980139 E11.711240)
   Germany.  Observer B. Stecklum. 1.34-m f/3 Schmidt + CCD.
(595) Farra d'Isonzo  (N45.915731 E13.525780)  Italy.  Observers S. Aschi, E.
   Pettarin, G. Panterotto. Measurers S. Aschi, E. Pettarin. 0.40-m f/5.15
   reflector + CCD.
(673) Table Mountain Observatory, Wrightwood  (N34.381485 W117.682170)
   US/California.  Observers J. Chesley, J. Pittichova. Measurer W. M. Owen
   Jr. 0.61-m f/16 reflector + CCD.
(900) Moriyama  (N35.049753 E135.989940)  Japan.  Observer Y. Ikari. 0.26-m
   f/7.0 reflector + CCD.
(C82) Osservatorio Astronomico Nastro Verde, Sorrento  (N40.618774
   E14.357590)  Italy.  Observer N. Ruocco. 0.35-m f/6.3 Schmidt-Cassegrain +
   CCD.
(G34) Oberfrauendorf  (N50.860002 E13.701500)  Germany.  Observer T. Felber.
   0.35-m f/6.3 Schmidt-Cassegrain + CCD.
(H01) Magdalena Ridge Observatory, Socorro  (N33.984833 W107.189333)  US/New
   Mexico.  Observers W. H. Ryan, E. V. Ryan. Measurer W. H. Ryan. 2.4-m
   f/8.9 reflector + CCD.
(I93) St Pardon de Conques  (N44.558670 W0.202960)  France.  Observers F.
   Losse, W. D'Anna. Measurer F. Losse. 0.40-m f/3.7 reflector + CCD.
(L01) Višnjan Observatory, Tičan  (N45.290897 E13.749300)  Croatia.
   Observers K. Korlević, D. Pujagic, V. Dobos. Measurers D. Pujagic, K.
   Korlević. 1.0-m f/2.9 reflector + CCD.
(L04) ROASTERR-1 Observatory, Cluj-Napoca  (N46.820952 E23.596400)  Romania.
   Observer L. Hudin. 0.3-m f/5 reflector + CCD0.1-m f/9 refractor + CCD.
(M45) Starhopper Observatory, Sfantu Gheorghe  (N45.865582 E25.768900)
   Romania.  Observer F. Ursache. 0.41-m f/7.5 reflector + CMO.
(Q06) Tarui Observatory, Tarui  (N35.394791 E136.495470)  Japan.
(T08) ATLAS-MLO, Mauna Loa  (N19.536150 W155.576050)  US/Hawaii.  Observers
   L. Denneau, A. Heinze, H. Weiland, J. Tonry, H. Flewelling, A.
   Fitzsimmons, D. Young, B. Stalder. Measurers L. Denneau, A. Heinze, J.
   Tonry. 0.5-m f/2.0 Schmidt + CCD.
(V21) Cewanee Observatory at DSNM  (N31.946619 W108.897690)  US/New Mexico.
   Observer D. T. Durig. 0.4-m f/8 Ritchey-Chrétien + 4656x3520 CCD.
(Y89) Proxima Centauri Observatory, Valdin  (N42.222443 W6.988110)  Spain.

Orbital elements:  A11aDOV
   Perihelion 2024 Sep 24.35938 +/- 0.0329 TT =  8:37:30 (JD 2460577.85938)
Epoch 2024 Sep  5.0 TT = JDT 2460558.5   Earth MOID: 0.0598      AutoNEOCP
M 351.26156005 +/- 0.026            (J2000 ecliptic)
n   0.45138006 +/- 0.00104          Peri.  186.63557 +/- 0.043
a   1.68309178 +/- 0.00259          Node   176.33487 +/- 0.008
e   0.3686912 +/- 0.000914          Incl.   16.14264 +/- 0.026
P   2.184/797.539d         H 22.50  G  0.15   U  8.1
q 1.06255060 +/- 0.000123    Q 2.30363297 +/- 0.00508
From 61 observations 2024 Sept. 4-5 (34.7 hr); mean residual 0".33
Residuals in arcseconds: 
240904 T08  .16-  .11+    240904 L04  .03-  .04+    240905 V21  .22-  .04-    
240904 T08  .26+  .30-    240904 595  .67-  .40-    240905 V21  .17+  .18+    
240904 T08  .18+  .14+    240904 L04  .65+  .02+    240905 673  .15+  .16-    
240904 T08  .06+  .50+    240904 595  .42+  .52-    240905 673  .04+  .04-    
240904 H01  .01+  .03+    240904 595  .58-  .69-    240905 673  .29+  .07-    
240904 H01  .05+  .02+    240904 L01  .11-  .02-    240905 900  .11-  .15+    
240904 H01  .00   .03+    240904 L01  .12+  .01-    240905 900  .39+  .18-    
240904 H01  .05+  .04+    240904 L01  .49-  .85+    240905 900  .22-  .15-    
240904 900  .14+  .26+    240904 C82  .61-  .36-    240905 Q06  .07-  .42+    
240904 900  .04+  .04-    240904 C82  .28+  .35-    240905 Q06  .29-  .26+    
240904 900  .07-  .42-    240904 C82  .50-  .41+    240905 Q06  .68+  .22+    
240904 033  .00   .08+    240904 I93  .17-  .05-    240905 033  .14-  .17+    
240904 033  .30+  .01+    240904 I93  .10+  .08+    240905 033  .15-  .26+    
240904 033  .20+  .05+    240904 I93  .04+  .05-    240905 033  .02+  .10+    
240904 033  .16-  .63+    240905 Y89  .49+  .93-    240905 G34  .01+  .17-    
240904 G34  .60-  .21-    240905 Y89  .09+  .32-    240905 G34  .55+  .18-    
240904 G34  .09+  .10-    240905 Y89  .60-  .33+    240905 G34  .64-  .89-    
240904 G34  .49-  .07-    240905 V21  .11+  .18+    240905 M45  .22+  .12+    
240904 G34  .34+  .36+    240905 V21  .15-  .06-    240905 M45  .16-  .27+    
240904 G34  1.0+  .36+    240905 V21  .07-  .01-    
240904 L04  .01+  .22+    240905 V21  .06+  .08-    

Ephemerides (geocentric):
Date (UTC) HH   RA             Dec           delta  r     elong  mag " sig PA
---- --------  ------------   ------------  ------ ------ -----  --- --------
2024 09 05 21  22 22 31.062   +36 58 59.72  .09598 1.0788 135.7 19.2 .067 118
2024 09 05 22  22 22 53.585   +36 56 09.03  .09579 1.0787 135.8 19.2 .070 118
2024 09 05 23  22 23 16.169   +36 53 17.29  .09561 1.0787 135.8 19.2 .073 118
